User: anonymous   Login
Location: Alta
(39.2070°N, 120.8111°W)
Time: 12:17:55
(UTC+00:00)
Language:

COSMOS 2251 DEB - Orbit

View from above orbital plane
View from above orbital plane
View from above satellite
View from above satellite

Ground track
Ground track

The orbit data is extracted from the following two-line orbital elements,

1 37494U 93036BLX 23334.53967406  .00011525  00000-0  25999-2 0  9993
2 37494  73.9985  43.4214 0094652 192.3768 167.5070 14.53619672742957
Epoch (UTC): 30 November 2023 12:57:07
Eccentricity: 0.0094652
inclination: 73.9985°
perigee height: 647 km
apogee height: 781 km
right ascension of ascending node: 43.4214°
argument of perigee: 192.3768°
revolutions per day: 14.53619672
mean anomaly at epoch: 167.5070°
orbit number at epoch: 74295

The dashed part of the orbit path shows where the satellite is in the earth's shadow,  

DLR